| time (UTC) | temp F | wind direction | speed MPH | gust MPH | rain 1hr in | rain 24hr in | rain mn in | humidity % | barometer mb |
| 20260510195104 | 72 | 293 | 1.0 | 2.0 | 0.00 | 0.00 | 0.00 | 53 | 1011.7 |
| 20260510194058 | 72 | 307 | 2.0 | 4.0 | 0.00 | 0.00 | 0.00 | 52 | 1011.6 |
| 20260510193113 | 73 | 261 | 4.0 | 8.0 | 0.00 | 0.00 | 0.00 | 50 | 1011.4 |
| 20260510192208 | 73 | 293 | 4.0 | 7.0 | 0.00 | 0.00 | 0.00 | 50 | 1011.4 |
| 20260510191043 | 74 | 260 | 2.0 | 4.0 | 0.00 | 0.00 | 0.00 | 47 | 1011.2 |
| 20260510190037 | 74 | 232 | 2.0 | 4.0 | 0.00 | 0.00 | 0.00 | 46 | 1011.3 |
| 20260510185032 | 74 | 248 | 1.0 | 2.0 | 0.00 | 0.00 | 0.00 | 47 | 1011.0 |
| 20260510184027 | 75 | 236 | 3.0 | 6.0 | 0.00 | 0.00 | 0.00 | 46 | 1010.9 |
| 20260510183022 | 75 | 212 | 3.0 | 7.0 | 0.00 | 0.00 | 0.00 | 45 | 1010.9 |
| 20260510182016 | 76 | 192 | 5.0 | 9.0 | 0.00 | 0.00 | 0.00 | 44 | 1010.7 |
| 20260510181111 | 76 | 161 | 5.0 | 11.0 | 0.00 | 0.00 | 0.00 | 44 | 1010.6 |
| 20260510180105 | 76 | 173 | 6.0 | 13.0 | 0.00 | 0.00 | 0.00 | 45 | 1010.7 |
| 20260510175058 | 76 | 204 | 6.0 | 14.0 | 0.00 | 0.00 | 0.00 | 43 | 1010.6 |
| 20260510174052 | 77 | 195 | 7.0 | 13.0 | 0.00 | 0.00 | 0.00 | 43 | 1010.7 |
| 20260510173047 | 77 | 203 | 5.0 | 11.0 | 0.00 | 0.00 | 0.00 | 43 | 1010.5 |
| 20260510172042 | 77 | 181 | 6.0 | 14.0 | 0.00 | 0.00 | 0.00 | 43 | 1010.7 |
| 20260510171037 | 78 | 147 | 5.0 | 11.0 | 0.00 | 0.00 | 0.00 | 42 | 1010.6 |
| 20260510170032 | 78 | 134 | 7.0 | 14.0 | 0.00 | 0.00 | 0.00 | 42 | 1010.4 |
| 20260510165027 | 78 | 161 | 6.0 | 13.0 | 0.00 | 0.00 | 0.00 | 42 | 1010.5 |
| 20260510164022 | 78 | 163 | 8.0 | 17.0 | 0.00 | 0.00 | 0.00 | 42 | 1010.5 |
| 20260510163016 | 79 | 188 | 5.0 | 13.0 | 0.00 | 0.00 | 0.00 | 42 | 1010.6 |
| 20260510162132 | 79 | 166 | 6.0 | 15.0 | 0.00 | 0.00 | 0.00 | 42 | 1010.6 |
| 20260510161147 | 79 | 147 | 7.0 | 17.0 | 0.00 | 0.00 | 0.00 | 42 | 1010.6 |
| 20260510160120 | 79 | 160 | 7.0 | 15.0 | 0.00 | 0.00 | 0.00 | 42 | 1010.6 |
| 20260510155135 | 79 | 193 | 7.0 | 14.0 | 0.00 | 0.00 | 0.00 | 42 | 1010.5 |
| 20260510154050 | 80 | 144 | 7.0 | 16.0 | 0.00 | 0.00 | 0.00 | 41 | 1010.6 |
| 20260510153105 | 80 | 194 | 8.0 | 18.0 | 0.00 | 0.00 | 0.00 | 41 | 1010.5 |
| 20260510152039 | 80 | 222 | 8.0 | 14.0 | 0.00 | 0.00 | 0.00 | 40 | 1010.7 |
| 20260510151034 | 81 | 168 | 6.0 | 15.0 | 0.00 | 0.00 | 0.00 | 40 | 1010.8 |
| 20260510150029 | 79 | 186 | 9.0 | 18.0 | 0.00 | 0.00 | 0.00 | 42 | 1011.0 |
| 20260510145024 | 79 | 227 | 10.0 | 18.0 | 0.00 | 0.00 | 0.00 | 42 | 1010.9 |
| 20260510144019 | 79 | 185 | 10.0 | 21.0 | 0.00 | 0.00 | 0.00 | 43 | 1011.2 |
| 20260510143114 | 79 | 224 | 8.0 | 23.0 | 0.00 | 0.00 | 0.00 | 42 | 1011.2 |
| 20260510142108 | 79 | 196 | 8.0 | 20.0 | 0.00 | 0.00 | 0.00 | 42 | 1011.2 |
| 20260510141102 | 80 | 164 | 9.0 | 18.0 | 0.00 | 0.00 | 0.00 | 41 | 1011.3 |
| 20260510140056 | 80 | 199 | 10.0 | 23.0 | 0.00 | 0.00 | 0.00 | 42 | 1011.4 |
| 20260510135051 | 81 | 153 | 7.0 | 20.0 | 0.00 | 0.00 | 0.00 | 42 | 1011.5 |
| 20260510134046 | 80 | 209 | 9.0 | 17.0 | 0.00 | 0.00 | 0.00 | 42 | 1011.8 |
| 20260510133041 | 79 | 211 | 8.0 | 15.0 | 0.00 | 0.00 | 0.00 | 42 | 1011.7 |
| 20260510132037 | 79 | 157 | 10.0 | 17.0 | 0.00 | 0.00 | 0.00 | 43 | 1011.9 |
| 20260510131031 | 80 | 235 | 9.0 | 20.0 | 0.00 | 0.00 | 0.00 | 42 | 1012.0 |
| 20260510130047 | 79 | 202 | 10.0 | 18.0 | 0.00 | 0.00 | 0.00 | 43 | 1012.1 |
| 20260510125042 | 80 | 207 | 9.0 | 18.0 | 0.00 | 0.00 | 0.00 | 41 | 1012.2 |
| 20260510124015 | 79 | 212 | 8.0 | 20.0 | 0.00 | 0.00 | 0.00 | 43 | 1012.3 |
| 20260510123131 | 79 | 222 | 9.0 | 18.0 | 0.00 | 0.00 | 0.00 | 44 | 1012.5 |
| 20260510122105 | 77 | 209 | 8.0 | 15.0 | 0.00 | 0.00 | 0.00 | 46 | 1012.5 |
| 20260510121059 | 78 | 189 | 8.0 | 14.0 | 0.00 | 0.00 | 0.00 | 44 | 1012.7 |
| 20260510120114 | 78 | 159 | 6.0 | 13.0 | 0.00 | 0.00 | 0.00 | 42 | 1013.0 |
| 20260510115049 | 78 | 217 | 6.0 | 11.0 | 0.00 | 0.00 | 0.00 | 46 | 1012.9 |
| 20260510114103 | 77 | 233 | 3.0 | 9.0 | 0.00 | 0.00 | 0.00 | 46 | 1013.0 |
| 20260510113059 | 76 | 123 | 3.0 | 7.0 | 0.00 | 0.00 | 0.00 | 48 | 1013.2 |
| 20260510112033 | 77 | 214 | 2.0 | 7.0 | 0.00 | 0.00 | 0.00 | 48 | 1013.4 |
| 20260510111028 | 77 | 203 | 3.0 | 8.0 | 0.00 | 0.00 | 0.00 | 46 | 1013.7 |
| 20260510110023 | 78 | 163 | 5.0 | 9.0 | 0.00 | 0.00 | 0.00 | 47 | 1013.8 |
| 20260510105018 | 79 | 202 | 2.0 | 7.0 | 0.00 | 0.00 | 0.00 | 47 | 1013.9 |
| 20260510104113 | 78 | 45 | 2.0 | 9.0 | 0.00 | 0.00 | 0.00 | 50 | 1013.9 |
| 20260510103127 | 76 | 73 | 1.0 | 4.0 | 0.00 | 0.00 | 0.00 | 52 | 1014.0 |
| 20260510102101 | 76 | 125 | 2.0 | 7.0 | 0.00 | 0.00 | 0.00 | 51 | 1014.1 |
| 20260510101056 | 75 | 85 | 3.0 | 7.0 | 0.00 | 0.00 | 0.00 | 54 | 1014.2 |
| 20260510100051 | 74 | 101 | 3.0 | 7.0 | 0.00 | 0.00 | 0.00 | 57 | 1014.3 |
| 20260510095046 | 73 | 76 | 3.0 | 8.0 | 0.00 | 0.00 | 0.00 | 58 | 1014.2 |
| 20260510094041 | 73 | 72 | 2.0 | 7.0 | 0.00 | 0.01 | 0.00 | 59 | 1014.3 |
| 20260510093036 | 72 | 88 | 3.0 | 6.0 | 0.00 | 0.04 | 0.00 | 60 | 1014.5 |
| 20260510092050 | 72 | 90 | 2.0 | 6.0 | 0.00 | 0.07 | 0.00 | 60 | 1014.4 |
| 20260510091025 | 71 | 63 | 2.0 | 6.0 | 0.00 | 0.07 | 0.00 | 60 | 1014.5 |
| 20260510090020 | 71 | 98 | 2.0 | 6.0 | 0.00 | 0.07 | 0.00 | 62 | 1014.5 |
| 20260510085115 | 71 | 113 | 1.0 | 2.0 | 0.00 | 0.07 | 0.00 | 65 | 1014.6 |
| 20260510084110 | 69 | 85 | 1.0 | 4.0 | 0.00 | 0.07 | 0.00 | 68 | 1014.8 |
| 20260510083105 | 67 | 9 | 2.0 | 4.0 | 0.00 | 0.07 | 0.00 | 71 | 1014.8 |
| 20260510082058 | 68 | 292 | 1.0 | 4.0 | 0.00 | 0.07 | 0.00 | 71 | 1014.8 |
| 20260510081054 | 66 | 26 | 1.0 | 2.0 | 0.00 | 0.07 | 0.00 | 73 | 1014.9 |
| 20260510080049 | 68 | 101 | 0.0 | 2.0 | 0.00 | 0.07 | 0.00 | 72 | 1014.9 |
| 20260510075043 | 65 | 113 | 1.0 | 4.0 | 0.00 | 0.07 | 0.00 | 76 | 1014.9 |
| 20260510074038 | 64 | 90 | 1.0 | 4.0 | 0.00 | 0.07 | 0.00 | 79 | 1014.9 |
| 20260510073054 | 64 | 173 | 2.0 | 4.0 | 0.00 | 0.07 | 0.00 | 79 | 1015.0 |
| 20260510072028 | 65 | 270 | 1.0 | 2.0 | 0.00 | 0.07 | 0.00 | 77 | 1015.2 |
| 20260510071043 | 63 | 270 | 1.0 | 2.0 | 0.00 | 0.07 | 0.00 | 78 | 1015.1 |
| 20260510070018 | 64 | 296 | 1.0 | 4.0 | 0.00 | 0.07 | 0.00 | 77 | 1015.1 |
| 20260510065113 | 63 | 315 | 0.0 | 2.0 | 0.00 | 0.07 | 0.00 | 80 | 1015.1 |
| 20260510064107 | 60 | 0.0 | 2.0 | 0.00 | 0.07 | 0.00 | 85 | 1015.1 | |
| 20260510063120 | 59 | 315 | 1.0 | 2.0 | 0.00 | 0.07 | 0.00 | 84 | 1014.9 |
| 20260510062055 | 60 | 315 | 1.0 | 2.0 | 0.00 | 0.07 | 0.00 | 85 | 1014.8 |
| 20260510061110 | 59 | 0.0 | 2.0 | 0.00 | 0.07 | 0.00 | 87 | 1014.8 | |
| 20260510060044 | 57 | 315 | 0.0 | 2.0 | 0.00 | 0.07 | 0.00 | 89 | 1014.7 |
| 20260510055039 | 57 | 0.0 | 2.0 | 0.00 | 0.07 | 0.00 | 89 | 1014.6 | |
| 20260510054054 | 57 | 315 | 1.0 | 2.0 | 0.00 | 0.07 | 0.00 | 90 | 1014.5 |
| 20260510053029 | 57 | 338 | 0.0 | 2.0 | 0.00 | 0.07 | 0.00 | 90 | 1014.4 |
| 20260510052024 | 57 | 338 | 1.0 | 2.0 | 0.00 | 0.07 | 0.00 | 90 | 1014.5 |
| 20260510051019 | 57 | 0.0 | 0.0 | 0.00 | 0.07 | 0.00 | 91 | 1014.4 | |
| 20260510050114 | 57 | 0.0 | 2.0 | 0.00 | 0.07 | 0.00 | 92 | 1014.4 | |
| 20260510045109 | 57 | 0.0 | 0.0 | 0.00 | 0.07 | 0.00 | 93 | 1014.2 | |
| 20260510044103 | 56 | 338 | 1.0 | 2.0 | 0.00 | 0.07 | 0.00 | 92 | 1014.4 |
| 20260510043117 | 56 | 338 | 0.0 | 2.0 | 0.00 | 0.07 | 0.00 | 92 | 1014.3 |
| 20260510042052 | 56 | 0.0 | 2.0 | 0.00 | 0.07 | 0.00 | 92 | 1014.5 | |
| 20260510041047 | 57 | 23 | 0.0 | 2.0 | 0.00 | 0.07 | 0.00 | 92 | 1014.4 |
| 20260510040041 | 57 | 23 | 0.0 | 2.0 | 0.00 | 0.07 | 0.00 | 92 | 1014.2 |
| 20260510035037 | 57 | 0.0 | 0.0 | 0.00 | 0.07 | 0.00 | 92 | 1014.2 | |
| 20260510034031 | 57 | 0.0 | 0.0 | 0.00 | 0.07 | 0.00 | 92 | 1014.3 | |
| 20260510033126 | 57 | 23 | 0.0 | 2.0 | 0.00 | 0.07 | 0.00 | 92 | 1014.3 |
| 20260510032041 | 57 | 0.0 | 2.0 | 0.00 | 0.07 | 0.00 | 91 | 1014.2 | |
| 20260510031115 | 57 | 0.0 | 0.0 | 0.00 | 0.07 | 0.00 | 91 | 1014.3 | |
| 20260510030110 | 57 | 23 | 0.0 | 2.0 | 0.00 | 0.07 | 0.00 | 91 | 1014.2 |
| 20260510025105 | 57 | 23 | 0.0 | 2.0 | 0.00 | 0.07 | 0.00 | 90 | 1014.2 |
| 20260510024059 | 57 | 0.0 | 0.0 | 0.00 | 0.07 | 0.00 | 92 | 1014.1 | |
| 20260510023114 | 57 | 23 | 0.0 | 2.0 | 0.00 | 0.07 | 0.00 | 91 | 1014.0 |
| 20260510022048 | 57 | 0.0 | 2.0 | 0.00 | 0.07 | 0.00 | 91 | 1014.0 | |
| 20260510021043 | 58 | 23 | 0.0 | 2.0 | 0.00 | 0.07 | 0.00 | 90 | 1013.9 |
| 20260510020059 | 58 | 23 | 0.0 | 2.0 | 0.00 | 0.07 | 0.00 | 90 | 1014.0 |
| 20260510015033 | 58 | 23 | 1.0 | 2.0 | 0.00 | 0.07 | 0.00 | 89 | 1013.9 |
| 20260510014028 | 58 | 23 | 0.0 | 2.0 | 0.00 | 0.07 | 0.00 | 89 | 1013.9 |
| 20260510013023 | 58 | 0.0 | 2.0 | 0.00 | 0.07 | 0.00 | 89 | 1014.0 | |
| 20260510012018 | 58 | 0.0 | 0.0 | 0.00 | 0.07 | 0.00 | 88 | 1013.9 | |
| 20260510011113 | 58 | 0.0 | 0.0 | 0.00 | 0.07 | 0.00 | 88 | 1013.8 | |
| 20260510010108 | 59 | 23 | 1.0 | 2.0 | 0.00 | 0.07 | 0.00 | 87 | 1013.9 |
| 20260510005102 | 58 | 23 | 2.0 | 2.0 | 0.00 | 0.07 | 0.00 | 87 | 1014.0 |
| 20260510004057 | 58 | 23 | 2.0 | 4.0 | 0.00 | 0.07 | 0.00 | 87 | 1014.1 |
| 20260510003052 | 59 | 23 | 1.0 | 2.0 | 0.00 | 0.07 | 0.00 | 86 | 1014.2 |
| 20260510002047 | 59 | 23 | 2.0 | 4.0 | 0.00 | 0.07 | 0.00 | 87 | 1014.2 |
| 20260510001042 | 59 | 45 | 1.0 | 2.0 | 0.00 | 0.07 | 0.00 | 87 | 1014.3 |
| 20260510000036 | 59 | 0.0 | 2.0 | 0.00 | 0.07 | 0.00 | 86 | 1014.3 | |
| 20260509235031 | 59 | 45 | 1.0 | 2.0 | 0.00 | 0.07 | 0.00 | 85 | 1014.3 |
| 20260509234026 | 60 | 23 | 3.0 | 7.0 | 0.00 | 0.07 | 0.00 | 83 | 1014.3 |
| 20260509233020 | 60 | 11 | 2.0 | 4.0 | 0.00 | 0.07 | 0.00 | 83 | 1014.3 |
| 20260509232115 | 60 | 19 | 3.0 | 4.0 | 0.00 | 0.07 | 0.00 | 83 | 1014.3 |
| 20260509231110 | 60 | 19 | 3.0 | 7.0 | 0.00 | 0.07 | 0.00 | 84 | 1014.5 |
| 20260509230105 | 59 | 23 | 1.0 | 6.0 | 0.00 | 0.07 | 0.00 | 86 | 1014.5 |
| 20260509225059 | 59 | 23 | 2.0 | 4.0 | 0.00 | 0.07 | 0.00 | 86 | 1014.4 |
| 20260509224054 | 60 | 35 | 2.0 | 4.0 | 0.00 | 0.07 | 0.00 | 85 | 1014.5 |
| 20260509223048 | 61 | 28 | 2.0 | 4.0 | 0.00 | 0.07 | 0.00 | 83 | 1014.5 |
| 20260509222043 | 61 | 14 | 1.0 | 4.0 | 0.00 | 0.07 | 0.00 | 83 | 1014.5 |
| 20260509221038 | 61 | 0 | 0.0 | 2.0 | 0.00 | 0.07 | 0.00 | 83 | 1014.4 |
| 20260509220033 | 61 | 17 | 1.0 | 2.0 | 0.00 | 0.07 | 0.00 | 82 | 1014.5 |
| 20260509215028 | 62 | 23 | 1.0 | 2.0 | 0.00 | 0.07 | 0.07 | 81 | 1014.4 |
| 20260509214043 | 62 | 16 | 1.0 | 4.0 | 0.00 | 0.07 | 0.07 | 80 | 1014.2 |
| 20260509213018 | 62 | 23 | 2.0 | 4.0 | 0.00 | 0.07 | 0.07 | 80 | 1014.2 |
| 20260509212112 | 62 | 20 | 1.0 | 2.0 | 0.00 | 0.07 | 0.07 | 80 | 1014.2 |
| 20260509211107 | 63 | 23 | 2.0 | 4.0 | 0.00 | 0.07 | 0.07 | 77 | 1014.1 |
| 20260509205056 | 63 | 113 | 0.0 | 2.0 | 0.00 | 0.07 | 0.07 | 76 | 1014.0 |
| 20260509204111 | 64 | 113 | 0.0 | 2.0 | 0.00 | 0.07 | 0.07 | 75 | 1013.9 |
| 20260509203046 | 64 | 113 | 0.0 | 2.0 | 0.00 | 0.07 | 0.07 | 74 | 1013.8 |
| 20260509202101 | 65 | 113 | 0.0 | 2.0 | 0.00 | 0.07 | 0.07 | 73 | 1013.7 |
| 20260509201036 | 65 | 113 | 0.0 | 2.0 | 0.00 | 0.07 | 0.07 | 72 | 1013.6 |
| 20260509200031 | 65 | 97 | 1.0 | 4.0 | 0.00 | 0.07 | 0.07 | 71 | 1013.3 |